Showing default

TEN-KOH, 43677

Orbit data source: Space-Track

TEN-KOH, 43677 is a payload satellite owned by Kyutech (JP) in SSO that was launched on Mon, 29 Oct 2018 UTC via an H-IIA 202 launch vehicle from the Tanegashima Space Center (TNSTA). Payload-class satellites include a variety of spacecraft equipped with specific instruments for various scientific and technological missions. These include communications satellites like Starlink; space stations such as the ISS; scientific satellites like the Hubble; Earth observation satellites from companies like Planet Labs, Umbra, and HawkEye 360; GPS; miniature CubeSats for education and research; and military/defense satellites.

Loading next visibility...
Identifier
43677, 2018-084G
Orbit
SSO
Country
Flag of JPJP / JPN
Related business
Manufacturer
Kyutech
Mission
Operational Amateur Technology
Bus & Motor
SHINEN-2, Unknown motor
Mass
22.3 kg wet, 22.3 kg dry
Launch date (UTC)
2018-10-29 (7 years ago)
Launch vehicle
H-IIA 202
Launch site
Tanegashima Space Center (TNSTA)
Object type
Payload
Rocket body
Debris
Shape & HBR
Polyhedral Cyl, 0.3 m
Radar Cross Section
0.295 m², Medium (>0.1 m² and < 1m²)

Expand to show TLE details & history
Last TLE update: 18 hours ago

TLE from 18 hours ago
0 TEN-KOH
1 43677U 18084G   25309.26244786  .00003442  00000-0  27144-3 0  9990
2 43677  98.0672 127.3950 0009310 132.7217 227.4792 15.01427834382544
Epoch: 2025-11-05T06:17Z
TLE epoch observation values (Epoch: 2025-11-05T06:17:55.495Z)
Latitude
0.00006°
Longitude
-11.82388°
Altitude
569.909 km
Speed
7.574 km/s
True Right ascension
08h 29m 34s
True Declination
0° 00' 00"
Sunlit
Object was in daylight at epoch
Visualization orbit readout
Latitude
Unknown
Longitude
Unknown
Altitude
Unknown
Speed
Unknown
Apparent Right ascension
Unknown
Apparent Declination
Unknown
Sunlit
N/A
Visualization observer readout
Local Sidereal Time
19:55:20
Azimuth
Unknown
Elevation
Unknown
Doppler factor
Unknown
Orbital elements
Apogee altitude
565.971 km
Perigee altitude
553.054 km
Semi-major axis
6,937.65 km
Eccentricity
0.00093
Inclination
98.0672°
RAAN
127.395°
Arg. of periapsis
132.7217°
True anomaly
227.40063°
Mean anomaly
227.4792°
Eccentric anomaly
227.43991°
Mean motion
3.75599 °/min
Orbital period
95.85 mins
BSTAR
0.00027144
Loading maneuver chart data...
Computing Atmospheric mass density...
Loading historical data...
Loading historical data...
Loading historical data...
Loading historical data...
Loading historical data...
Loading historical data...
Loading historical data...

Documentation

Showing up to 5 results
|